When you browse on this site, cookies collect data to enhance your experience and personalize the content and advertising you see.
Visit our Privacy Policy to learn more. By continuing to use the site, you agree to this use of cookies and data.
  • In Hungary
  • List of Countries
  • For 7 days
  • Water Temperature
  • Weather Map
  • News
  • Weather Widgets
  • user-avatar
    Login

    Hourly Weather Mangiday

    Today, 26 January, Sunday

    Time Temperature Precipitation Wind Pressure Humidity
    00:00 -27°C° 0 mm 3 mps 765 mmHg 98%
    01:00 -27°C° 0 mm 3 mps 765 mmHg 98%
    02:00 -29°C° 0 mm 3 mps 764 mmHg 97%
    03:00 -30°C° 0 mm 3 mps 764 mmHg 99%
    04:00 -30°C° 0 mm 3 mps 763 mmHg 98%
    05:00 -30°C° 0 mm 3 mps 763 mmHg 98%
    06:00 -30°C° 0 mm 3 mps 762 mmHg 97%
    07:00 -30°C° 0 mm 4 mps 762 mmHg 96%
    08:00 -29°C° 0 mm 4 mps 762 mmHg 94%
    09:00 -27°C° 0 mm 4 mps 762 mmHg 93%
    10:00 -26°C° 0 mm 4 mps 761 mmHg 91%
    11:00 -25°C° 0 mm 4 mps 761 mmHg 90%
    12:00 -24°C° 0 mm 4 mps 760 mmHg 88%
    13:00 -25°C° 0 mm 4 mps 760 mmHg 90%
    14:00 -24°C° 0 mm 3 mps 760 mmHg 91%
    15:00 -24°C° 0 mm 3 mps 760 mmHg 92%
    16:00 -25°C° 0 mm 3 mps 760 mmHg 94%
    17:00 -26°C° 0 mm 2 mps 760 mmHg 95%
    18:00 -27°C° 0 mm 2 mps 761 mmHg 96%
    19:00 -27°C° 0 mm 2 mps 761 mmHg 97%
    20:00 -27°C° 0 mm 2 mps 761 mmHg 97%
    21:00 -27°C° 0 mm 2 mps 761 mmHg 98%
    22:00 -27°C° 0 mm 2 mps 761 mmHg 98%
    23:00 -27°C° 0 mm 2 mps 761 mmHg 98%

    Tomorrow, 27 January, Monday

    Time Temperature Precipitation Wind Pressure Humidity
    00:00 -27°C° 0 mm 2 mps 762 mmHg 99%
    01:00 -27°C° 0 mm 2 mps 762 mmHg 98%
    02:00 -27°C° 0 mm 2 mps 762 mmHg 98%
    03:00 -28°C° 0 mm 2 mps 762 mmHg 98%
    04:00 -28°C° 0 mm 2 mps 762 mmHg 98%
    05:00 -28°C° 0 mm 2 mps 763 mmHg 98%
    06:00 -28°C° 0 mm 2 mps 763 mmHg 97%
    07:00 -27°C° 0 mm 2 mps 764 mmHg 96%
    08:00 -26°C° 0 mm 3 mps 764 mmHg 95%
    09:00 -25°C° 0 mm 3 mps 764 mmHg 94%
    10:00 -24°C° 0 mm 3 mps 764 mmHg 91%
    11:00 -22°C° 0 mm 3 mps 765 mmHg 88%
    12:00 -21°C° 0 mm 3 mps 765 mmHg 85%
    13:00 -21°C° 0 mm 3 mps 765 mmHg 86%
    14:00 -21°C° 0 mm 3 mps 765 mmHg 88%
    15:00 -21°C° 0 mm 3 mps 765 mmHg 89%
    16:00 -23°C° 0 mm 3 mps 766 mmHg 88%
    17:00 -24°C° 0 mm 3 mps 766 mmHg 88%
    18:00 -24°C° 0 mm 2 mps 767 mmHg 88%
    19:00 -24°C° 0 mm 2 mps 767 mmHg 87%
    20:00 -24°C° 0 mm 2 mps 767 mmHg 86%
    21:00 -24°C° 0 mm 2 mps 767 mmHg 86%
    22:00 -25°C° 0 mm 3 mps 767 mmHg 86%
    23:00 -25°C° 0 mm 3 mps 768 mmHg 86%

    Day after tomorrow, 28 January, Tuesday

    Time Temperature Precipitation Wind Pressure Humidity
    00:00 -24°C° 0 mm 3 mps 768 mmHg 86%
    01:00 -23°C° 0 mm 2 mps 768 mmHg 86%
    02:00 -23°C° 0 mm 2 mps 768 mmHg 86%
    03:00 -23°C° 0 mm 2 mps 768 mmHg 86%
    04:00 -23°C° 0 mm 2 mps 769 mmHg 87%
    05:00 -23°C° 0 mm 2 mps 769 mmHg 87%
    06:00 -23°C° 0 mm 2 mps 769 mmHg 87%
    07:00 -21°C° 0 mm 2 mps 769 mmHg 86%
    08:00 -17°C° 0 mm 1 mps 768 mmHg 85%
    09:00 -16°C° 0 mm 1 mps 768 mmHg 84%
    10:00 -14°C° 0 mm 1 mps 768 mmHg 82%
    11:00 -12°C° 0 mm 1 mps 768 mmHg 81%
    12:00 -11°C° 0 mm 1 mps 768 mmHg 79%
    13:00 -11°C° 0 mm 1 mps 768 mmHg 81%
    14:00 -11°C° 0 mm 1 mps 768 mmHg 83%
    15:00 -11°C° 0 mm 1 mps 768 mmHg 85%
    16:00 -12°C° 0 mm 0 mps 768 mmHg 86%
    17:00 -13°C° 0 mm 0 mps 768 mmHg 86%
    18:00 -14°C° 0 mm 0 mps 769 mmHg 86%
    19:00 -14°C° 0 mm 0 mps 769 mmHg 86%
    20:00 -14°C° 0 mm 0 mps 769 mmHg 86%
    21:00 -14°C° 0 mm 0 mps 769 mmHg 86%
    22:00 -14°C° 0 mm 0 mps 769 mmHg 86%
    23:00 -14°C° 0 mm 0 mps 769 mmHg 87%

    29 January, Wednesday

    Time Temperature Precipitation Wind Pressure Humidity
    00:00 -15°C° 0 mm 0 mps 769 mmHg 88%
    01:00 -15°C° 0 mm 0 mps 769 mmHg 89%
    02:00 -15°C° 0 mm 1 mps 768 mmHg 89%
    03:00 -15°C° 0 mm 1 mps 768 mmHg 90%
    04:00 -15°C° 0 mm 1 mps 768 mmHg 91%
    05:00 -15°C° 0 mm 1 mps 768 mmHg 91%
    06:00 -15°C° 0 mm 1 mps 768 mmHg 92%
    07:00 -14°C° 0 mm 1 mps 768 mmHg 91%
    08:00 -14°C° 0 mm 1 mps 768 mmHg 91%
    09:00 -15°C° 0 mm 2 mps 769 mmHg 90%
    10:00 -14°C° 0 mm 2 mps 768 mmHg 90%
    11:00 -13°C° 0 mm 2 mps 768 mmHg 89%
    12:00 -12°C° 0 mm 2 mps 768 mmHg 88%
    13:00 -12°C° 0.1 mm 2 mps 768 mmHg 90%
    14:00 -13°C° 0.1 mm 2 mps 768 mmHg 91%
    15:00 -14°C° 0.1 mm 3 mps 768 mmHg 92%
    16:00 -14°C° 0 mm 2 mps 768 mmHg 93%
    17:00 -15°C° 0 mm 2 mps 768 mmHg 94%
    18:00 -16°C° 0 mm 2 mps 769 mmHg 96%
    19:00 -16°C° 0 mm 2 mps 769 mmHg 96%
    20:00 -16°C° 0 mm 2 mps 769 mmHg 96%
    21:00 -16°C° 0 mm 2 mps 769 mmHg 96%
    22:00 -17°C° 0 mm 2 mps 769 mmHg 96%
    23:00 -18°C° 0 mm 2 mps 769 mmHg 96%

    30 January, Thursday

    Time Temperature Precipitation Wind Pressure Humidity
    00:00 -19°C° 0 mm 2 mps 769 mmHg 96%
    01:00 -20°C° 0 mm 2 mps 769 mmHg 95%
    02:00 -20°C° 0 mm 2 mps 769 mmHg 93%
    03:00 -19°C° 0 mm 1 mps 769 mmHg 92%
    04:00 -19°C° 0 mm 1 mps 769 mmHg 91%
    05:00 -19°C° 0 mm 1 mps 768 mmHg 89%
    06:00 -20°C° 0 mm 1 mps 768 mmHg 88%
    07:00 -18°C° 0 mm 1 mps 768 mmHg 87%
    08:00 -17°C° 0 mm 1 mps 768 mmHg 87%
    09:00 -16°C° 0 mm 0 mps 768 mmHg 86%
    10:00 -14°C° 0 mm 1 mps 768 mmHg 85%
    11:00 -12°C° 0 mm 1 mps 767 mmHg 84%
    12:00 -11°C° 0 mm 1 mps 767 mmHg 83%
    13:00 -11°C° 0 mm 1 mps 767 mmHg 86%
    14:00 -12°C° 0 mm 1 mps 767 mmHg 88%
    15:00 -12°C° 0 mm 1 mps 766 mmHg 91%
    16:00 -14°C° 0 mm 0 mps 766 mmHg 91%
    17:00 -16°C° 0 mm 0 mps 767 mmHg 92%
    18:00 -17°C° 0 mm 0 mps 767 mmHg 92%
    19:00 -18°C° 0 mm 0 mps 767 mmHg 91%
    20:00 -18°C° 0 mm 0 mps 767 mmHg 90%
    21:00 -18°C° 0 mm 1 mps 767 mmHg 88%
    22:00 -18°C° 0 mm 1 mps 766 mmHg 87%
    23:00 -18°C° 0 mm 1 mps 766 mmHg 85%

    31 January, Friday

    Time Temperature Precipitation Wind Pressure Humidity
    00:00 -18°C° 0 mm 1 mps 766 mmHg 83%
    01:00 -18°C° 0 mm 1 mps 766 mmHg 82%
    02:00 -18°C° 0 mm 1 mps 766 mmHg 80%
    03:00 -19°C° 0 mm 1 mps 766 mmHg 79%
    04:00 -19°C° 0 mm 1 mps 766 mmHg 78%
    05:00 -19°C° 0 mm 1 mps 766 mmHg 77%
    06:00 -19°C° 0 mm 1 mps 766 mmHg 76%
    07:00 -17°C° 0 mm 1 mps 766 mmHg 77%
    08:00 -16°C° 0 mm 1 mps 766 mmHg 77%
    09:00 -14°C° 0 mm 1 mps 766 mmHg 77%
    10:00 -15°C° 0 mm 2 mps 766 mmHg 77%
    11:00 -13°C° 0 mm 2 mps 766 mmHg 76%
    12:00 -10°C° 0 mm 2 mps 766 mmHg 75%
    13:00 -10°C° 0 mm 2 mps 766 mmHg 79%
    14:00 -12°C° 0 mm 2 mps 765 mmHg 82%
    15:00 -12°C° 0 mm 2 mps 765 mmHg 86%
    16:00 -14°C° 0 mm 2 mps 766 mmHg 87%
    17:00 -16°C° 0 mm 2 mps 766 mmHg 89%
    18:00 -18°C° 0 mm 2 mps 766 mmHg 90%
    19:00 -19°C° 0 mm 2 mps 766 mmHg 90%
    20:00 -20°C° 0 mm 2 mps 766 mmHg 90%
    21:00 -20°C° 0 mm 2 mps 767 mmHg 90%
    22:00 -21°C° 0 mm 2 mps 767 mmHg 89%
    23:00 -21°C° 0 mm 2 mps 767 mmHg 88%
    Show more